Time,TemperatureF,DewpointF,PressureIn,WindDirection,WindDirectionDegrees,WindSpeedMPH,WindSpeedGustMPH,Humidity,HourlyPrecipIn,Conditions,Clouds,dailyrainin,SoftwareType,DateUTC
2013-10-01 00:00:00,67.4,65.9,29.97,SE,137,0.0,0.0,95,0.00,,,0.00,Wunderground v.1.15,2013-10-01 04:00:00,
2013-10-01 00:02:00,67.4,65.9,29.97,SE,140,0.0,5.0,95,0.00,,,0.00,Wunderground v.1.15,2013-10-01 04:02:00,
2013-10-01 00:06:00,67.4,66.2,29.97,WSW,243,0.0,5.0,96,0.00,,,0.00,Wunderground v.1.15,2013-10-01 04:06:00,
2013-10-01 00:10:00,67.4,66.2,29.97,ENE,73,0.0,0.0,96,0.00,,,0.00,Wunderground v.1.15,2013-10-01 04:10:00,
2013-10-01 00:16:00,67.4,65.9,29.97,SSE,167,0.0,0.0,95,0.00,,,0.00,Wunderground v.1.15,2013-10-01 04:16:00,
2013-10-01 00:18:00,67.4,65.9,29.97,SE,128,0.0,0.0,95,0.00,,,0.00,Wunderground v.1.15,2013-10-01 04:18:00,
2013-10-01 00:22:00,67.3,66.1,29.97,NW,323,1.0,7.0,96,0.00,,,0.00,Wunderground v.1.15,2013-10-01 04:22:00,
2013-10-01 00:28:00,66.9,66.0,29.97,WNW,301,3.0,7.0,97,0.00,,,0.00,Wunderground v.1.15,2013-10-01 04:28:00,
2013-10-01 00:34:00,67.1,66.5,29.97,WNW,298,4.0,6.0,98,0.00,,,0.00,Wunderground v.1.15,2013-10-01 04:34:00,
2013-10-01 00:40:00,67.1,66.5,29.97,WNW,298,4.0,6.0,98,0.00,,,0.00,Wunderground v.1.15,2013-10-01 04:40:00,
2013-10-01 00:46:00,67.1,66.8,29.97,WNW,301,5.0,6.0,99,0.00,,,0.00,Wunderground v.1.15,2013-10-01 04:46:00,
2013-10-01 00:52:00,66.8,66.5,29.97,NW,305,5.0,5.0,99,0.00,,,0.00,Wunderground v.1.15,2013-10-01 04:52:00,
2013-10-01 00:58:00,66.6,66.3,29.97,NW,304,4.0,5.0,99,0.00,,,0.00,Wunderground v.1.15,2013-10-01 04:58:00,
2013-10-01 01:04:00,66.8,66.5,29.97,WNW,301,4.0,6.0,99,0.00,,,0.00,Wunderground v.1.15,2013-10-01 05:04:00,
2013-10-01 01:10:00,66.8,66.5,29.97,WNW,299,4.0,4.0,99,0.00,,,0.00,Wunderground v.1.15,2013-10-01 05:10:00,
2013-10-01 01:16:00,66.9,66.6,29.97,NW,312,4.0,5.0,99,0.00,,,0.00,Wunderground v.1.15,2013-10-01 05:16:00,
2013-10-01 01:22:00,66.8,66.5,29.97,NW,313,3.0,6.0,99,0.00,,,0.00,Wunderground v.1.15,2013-10-01 05:22:00,
2013-10-01 01:28:00,67.3,67.0,29.97,NNW,329,5.0,7.0,99,0.00,,,0.00,Wunderground v.1.15,2013-10-01 05:28:00,
2013-10-01 01:34:00,67.4,66.5,29.97,NW,315,6.0,7.0,97,0.00,,,0.00,Wunderground v.1.15,2013-10-01 05:34:00,
2013-10-01 01:40:00,67.3,66.4,29.97,NW,319,5.0,9.0,97,0.00,,,0.00,Wunderground v.1.15,2013-10-01 05:40:00,
2013-10-01 01:46:00,67.6,65.8,29.97,NW,316,7.0,9.0,94,0.00,,,0.00,Wunderground v.1.15,2013-10-01 05:46:00,
2013-10-01 01:52:00,67.9,65.5,29.97,NW,320,8.0,8.0,92,0.00,,,0.00,Wunderground v.1.15,2013-10-01 05:52:00,
2013-10-01 01:58:00,68.4,65.7,29.97,NNW,328,8.0,10.0,91,0.00,,,0.00,Wunderground v.1.15,2013-10-01 05:58:00,
2013-10-01 02:04:00,68.6,64.9,29.97,NW,320,9.0,11.0,88,0.00,,,0.00,Wunderground v.1.15,2013-10-01 06:04:00,
2013-10-01 02:10:00,68.4,64.4,29.97,NNW,333,9.0,9.0,87,0.00,,,0.00,Wunderground v.1.15,2013-10-01 06:10:00,
2013-10-01 02:16:00,68.4,64.7,29.97,NNW,328,7.0,9.0,88,0.00,,,0.00,Wunderground v.1.15,2013-10-01 06:16:00,
2013-10-01 02:22:00,68.1,64.7,29.97,NNW,332,7.0,8.0,89,0.00,,,0.00,Wunderground v.1.15,2013-10-01 06:22:00,
2013-10-01 02:28:00,68.1,65.1,29.97,NNW,339,7.0,8.0,90,0.00,,,0.00,Wunderground v.1.15,2013-10-01 06:28:00,
2013-10-01 02:34:00,67.9,64.5,29.97,NNW,332,6.0,6.0,89,0.00,,,0.00,Wunderground v.1.15,2013-10-01 06:34:00,
2013-10-01 02:40:00,68.1,65.4,29.97,NNW,335,6.0,6.0,91,0.00,,,0.00,Wunderground v.1.15,2013-10-01 06:40:00,
2013-10-01 02:46:00,67.9,64.9,29.97,NNW,329,6.0,7.0,90,0.00,,,0.00,Wunderground v.1.15,2013-10-01 06:46:00,
2013-10-01 02:52:00,67.8,64.4,29.97,NW,323,6.0,6.0,89,0.00,,,0.00,Wunderground v.1.15,2013-10-01 06:52:00,
2013-10-01 02:58:00,67.6,64.2,29.97,NW,315,6.0,6.0,89,0.00,,,0.00,Wunderground v.1.15,2013-10-01 06:58:00,
2013-10-01 03:08:00,67.3,64.6,29.97,NNW,336,4.0,12.0,91,0.00,,,0.00,Wunderground v.1.15,2013-10-01 07:08:00,
2013-10-01 03:16:00,67.1,64.4,29.97,NW,318,5.0,7.0,91,0.00,,,0.00,Wunderground v.1.15,2013-10-01 07:16:00,
2013-10-01 03:22:00,66.9,64.2,29.97,NNW,329,5.0,5.0,91,0.00,,,0.00,Wunderground v.1.15,2013-10-01 07:22:00,
2013-10-01 03:28:00,66.8,64.4,29.97,NW,320,5.0,6.0,92,0.00,,,0.00,Wunderground v.1.15,2013-10-01 07:28:00,
2013-10-01 03:34:00,66.8,64.4,29.96,NW,319,5.0,6.0,92,0.00,,,0.00,Wunderground v.1.15,2013-10-01 07:34:00,
2013-10-01 03:40:00,66.8,64.4,29.96,NW,320,4.0,7.0,92,0.00,,,0.00,Wunderground v.1.15,2013-10-01 07:40:00,
2013-10-01 03:46:00,66.8,64.7,29.96,NNW,335,4.0,8.0,93,0.00,,,0.00,Wunderground v.1.15,2013-10-01 07:46:00,
2013-10-01 03:52:00,66.9,64.5,29.96,NNW,328,5.0,9.0,92,0.00,,,0.00,Wunderground v.1.15,2013-10-01 07:52:00,
2013-10-01 03:58:00,66.8,64.4,29.96,NNW,328,7.0,9.0,92,0.00,,,0.00,Wunderground v.1.15,2013-10-01 07:58:00,
2013-10-01 04:04:00,66.8,64.7,29.96,NNW,342,7.0,13.0,93,0.00,,,0.00,Wunderground v.1.15,2013-10-01 08:04:00,
2013-10-01 04:10:00,66.6,64.5,29.96,NNW,330,7.0,7.0,93,0.00,,,0.00,Wunderground v.1.15,2013-10-01 08:10:00,
2013-10-01 04:16:00,66.6,64.8,29.95,NNW,328,7.0,7.0,94,0.00,,,0.00,Wunderground v.1.15,2013-10-01 08:16:00,
2013-10-01 04:22:00,66.8,65.3,29.95,NNW,342,6.0,6.0,95,0.00,,,0.00,Wunderground v.1.15,2013-10-01 08:22:00,
2013-10-01 04:28:00,67.1,65.9,29.95,NNW,339,5.0,7.0,96,0.00,,,0.00,Wunderground v.1.15,2013-10-01 08:28:00,
2013-10-01 04:34:00,67.1,65.6,29.96,NNW,346,6.0,7.0,95,0.00,,,0.00,Wunderground v.1.15,2013-10-01 08:34:00,
2013-10-01 04:42:00,67.3,65.2,29.96,NNW,343,7.0,7.0,93,0.00,,,0.00,Wunderground v.1.15,2013-10-01 08:42:00,
2013-10-01 04:48:00,67.3,65.2,29.96,North,359,9.0,11.0,93,0.00,,,0.00,Wunderground v.1.15,2013-10-01 08:48:00,
2013-10-01 04:54:00,67.1,65.3,29.96,North,11,10.0,10.0,94,0.00,,,0.00,Wunderground v.1.15,2013-10-01 08:54:00,
2013-10-01 05:00:00,66.9,65.4,29.96,North,353,8.0,10.0,95,0.00,,,0.00,Wunderground v.1.15,2013-10-01 09:00:00,
2013-10-01 05:06:00,66.8,65.3,29.96,North,350,8.0,11.0,95,0.00,,,0.00,Wunderground v.1.15,2013-10-01 09:06:00,
2013-10-01 05:12:00,66.9,66.0,29.96,North,353,9.0,11.0,97,0.00,,,0.00,Wunderground v.1.15,2013-10-01 09:12:00,
2013-10-01 05:18:00,66.9,66.0,29.96,North,359,10.0,11.0,97,0.00,,,0.00,Wunderground v.1.15,2013-10-01 09:18:00,
2013-10-01 05:24:00,66.9,66.3,29.96,NNW,346,10.0,10.0,98,0.00,,,0.00,Wunderground v.1.15,2013-10-01 09:24:00,
2013-10-01 05:30:00,66.6,66.0,29.97,North,352,8.0,8.0,98,0.00,,,0.00,Wunderground v.1.15,2013-10-01 09:30:00,
2013-10-01 05:36:00,66.4,65.8,29.97,North,0,8.0,10.0,98,0.00,,,0.00,Wunderground v.1.15,2013-10-01 09:36:00,
2013-10-01 05:42:00,66.0,65.4,29.97,North,0,8.0,8.0,98,0.00,,,0.00,Wunderground v.1.15,2013-10-01 09:42:00,
2013-10-01 05:48:00,66.0,65.7,29.97,NNW,342,8.0,10.0,99,0.00,,,0.00,Wunderground v.1.15,2013-10-01 09:48:00,
2013-10-01 05:54:00,66.1,65.8,29.97,North,352,9.0,11.0,99,0.00,,,0.00,Wunderground v.1.15,2013-10-01 09:54:00,
2013-10-01 06:00:00,66.1,65.8,29.98,WSW,248,8.0,8.0,99,0.00,,,0.00,Wunderground v.1.15,2013-10-01 10:00:00,
2013-10-01 06:08:00,66.0,65.7,29.98,North,0,5.0,12.0,99,0.00,,,0.00,Wunderground v.1.15,2013-10-01 10:08:00,
2013-10-01 06:14:00,66.1,66.1,29.98,North,0,5.0,5.0,100,0.00,,,0.00,Wunderground v.1.15,2013-10-01 10:14:00,
2013-10-01 06:20:00,66.3,66.3,29.98,North,349,6.0,8.0,100,0.00,,,0.00,Wunderground v.1.15,2013-10-01 10:20:00,
2013-10-01 06:26:00,66.3,66.0,29.98,North,3,8.0,9.0,99,0.00,,,0.00,Wunderground v.1.15,2013-10-01 10:26:00,
2013-10-01 06:32:00,66.3,66.0,29.98,North,10,8.0,11.0,99,0.00,,,0.00,Wunderground v.1.15,2013-10-01 10:32:00,
2013-10-01 06:38:00,66.4,66.1,29.98,NNW,344,9.0,11.0,99,0.00,,,0.00,Wunderground v.1.15,2013-10-01 10:38:00,
2013-10-01 06:44:00,66.3,65.7,29.98,North,350,9.0,11.0,98,0.00,,,0.00,Wunderground v.1.15,2013-10-01 10:44:00,
2013-10-01 06:50:00,66.4,65.8,29.99,North,356,9.0,9.0,98,0.00,,,0.00,Wunderground v.1.15,2013-10-01 10:50:00,
2013-10-01 06:56:00,66.6,66.0,29.99,North,350,8.0,10.0,98,0.00,,,0.00,Wunderground v.1.15,2013-10-01 10:56:00,
2013-10-01 07:02:00,66.6,65.7,30.00,North,357,8.0,10.0,97,0.00,,,0.00,Wunderground v.1.15,2013-10-01 11:02:00,
2013-10-01 07:08:00,66.4,65.5,30.00,North,352,7.0,12.0,97,0.00,,,0.00,Wunderground v.1.15,2013-10-01 11:08:00,
2013-10-01 07:14:00,66.3,65.1,30.00,North,357,7.0,10.0,96,0.00,,,0.00,Wunderground v.1.15,2013-10-01 11:14:00,
2013-10-01 07:20:00,66.3,65.1,30.00,North,357,8.0,8.0,96,0.00,,,0.00,Wunderground v.1.15,2013-10-01 11:20:00,
2013-10-01 07:28:00,66.1,64.6,30.00,North,353,8.0,10.0,95,0.00,,,0.00,Wunderground v.1.15,2013-10-01 11:28:00,
2013-10-01 07:34:00,66.1,64.3,30.01,North,357,8.0,9.0,94,0.00,,,0.00,Wunderground v.1.15,2013-10-01 11:34:00,
2013-10-01 07:40:00,66.1,64.6,30.01,NNW,340,8.0,8.0,95,0.00,,,0.00,Wunderground v.1.15,2013-10-01 11:40:00,
2013-10-01 07:46:00,66.0,64.5,30.01,North,356,8.0,11.0,95,0.00,,,0.00,Wunderground v.1.15,2013-10-01 11:46:00,
2013-10-01 07:52:00,66.1,64.6,30.01,North,350,8.0,8.0,95,0.00,,,0.00,Wunderground v.1.15,2013-10-01 11:52:00,
2013-10-01 07:58:00,66.4,64.3,30.01,North,353,7.0,11.0,93,0.00,,,0.00,Wunderground v.1.15,2013-10-01 11:58:00,
2013-10-01 08:04:00,66.4,64.0,30.02,North,353,9.0,13.0,92,0.00,,,0.00,Wunderground v.1.15,2013-10-01 12:04:00,
2013-10-01 08:12:00,66.4,64.0,30.02,NNW,346,8.0,8.0,92,0.00,,,0.00,Wunderground v.1.15,2013-10-01 12:12:00,
2013-10-01 08:18:00,66.4,64.0,30.02,North,357,7.0,8.0,92,0.00,,,0.00,Wunderground v.1.15,2013-10-01 12:18:00,
2013-10-01 08:24:00,66.4,64.0,30.02,NNW,340,7.0,10.0,92,0.00,,,0.00,Wunderground v.1.15,2013-10-01 12:24:00,
2013-10-01 08:30:00,66.6,63.9,30.02,NNW,343,7.0,8.0,91,0.00,,,0.00,Wunderground v.1.15,2013-10-01 12:30:00,
2013-10-01 08:36:00,66.9,64.5,30.02,NNW,346,8.0,10.0,92,0.00,,,0.00,Wunderground v.1.15,2013-10-01 12:36:00,
2013-10-01 08:42:00,66.8,64.4,30.02,NNW,342,7.0,10.0,92,0.00,,,0.00,Wunderground v.1.15,2013-10-01 12:42:00,
2013-10-01 08:48:00,66.8,64.4,30.02,NNW,343,7.0,10.0,92,0.00,,,0.00,Wunderground v.1.15,2013-10-01 12:48:00,
2013-10-01 08:54:00,67.1,64.7,30.02,North,350,6.0,8.0,92,0.00,,,0.00,Wunderground v.1.15,2013-10-01 12:54:00,
2013-10-01 09:00:00,67.6,64.6,30.02,North,353,5.0,8.0,90,0.00,,,0.00,Wunderground v.1.15,2013-10-01 13:00:00,
2013-10-01 09:06:00,67.9,63.9,30.03,NNE,25,6.0,13.0,87,0.00,,,0.00,Wunderground v.1.15,2013-10-01 13:06:00,
2013-10-01 09:12:00,68.1,64.1,30.03,North,354,7.0,8.0,87,0.00,,,0.00,Wunderground v.1.15,2013-10-01 13:12:00,
2013-10-01 09:18:00,68.4,64.0,30.04,North,350,8.0,11.0,86,0.00,,,0.00,Wunderground v.1.15,2013-10-01 13:18:00,
2013-10-01 09:24:00,68.6,63.2,30.04,North,357,9.0,11.0,83,0.00,,,0.00,Wunderground v.1.15,2013-10-01 13:24:00,
2013-10-01 09:30:00,68.6,63.2,30.04,North,357,10.0,12.0,83,0.00,,,0.00,Wunderground v.1.15,2013-10-01 13:30:00,
2013-10-01 09:36:00,68.9,63.5,30.04,North,357,10.0,12.0,83,0.00,,,0.00,Wunderground v.1.15,2013-10-01 13:36:00,
2013-10-01 09:42:00,69.3,64.6,30.04,North,0,9.0,10.0,85,0.00,,,0.00,Wunderground v.1.15,2013-10-01 13:42:00,
2013-10-01 09:48:00,69.3,64.6,30.04,NNW,332,9.0,11.0,85,0.00,,,0.00,Wunderground v.1.15,2013-10-01 13:48:00,
2013-10-01 09:54:00,69.4,64.7,30.04,NNW,342,9.0,9.0,85,0.00,,,0.00,Wunderground v.1.15,2013-10-01 13:54:00,
2013-10-01 10:00:00,69.9,64.8,30.05,NNW,346,8.0,10.0,84,0.00,,,0.00,Wunderground v.1.15,2013-10-01 14:00:00,
2013-10-01 10:06:00,70.3,64.5,30.05,North,350,8.0,12.0,82,0.00,,,0.00,Wunderground v.1.15,2013-10-01 14:06:00,
2013-10-01 10:12:00,70.4,63.9,30.05,NNW,344,9.0,9.0,80,0.00,,,0.00,Wunderground v.1.15,2013-10-01 14:12:00,
2013-10-01 10:18:00,70.9,64.4,30.05,NNW,337,8.0,9.0,80,0.00,,,0.00,Wunderground v.1.15,2013-10-01 14:18:00,
2013-10-01 10:24:00,71.3,64.8,30.05,North,353,8.0,9.0,80,0.00,,,0.00,Wunderground v.1.15,2013-10-01 14:24:00,
2013-10-01 10:30:00,71.6,64.7,30.05,North,350,8.0,8.0,79,0.00,,,0.00,Wunderground v.1.15,2013-10-01 14:30:00,
2013-10-01 10:36:00,72.0,64.4,30.05,NNW,346,8.0,11.0,77,0.00,,,0.00,Wunderground v.1.15,2013-10-01 14:36:00,
2013-10-01 10:42:00,72.0,64.0,30.05,NNW,340,8.0,10.0,76,0.00,,,0.00,Wunderground v.1.15,2013-10-01 14:42:00,
2013-10-01 10:48:00,72.1,64.9,30.05,NNW,342,8.0,10.0,78,0.00,,,0.00,Wunderground v.1.15,2013-10-01 14:48:00,
2013-10-01 10:54:00,72.3,65.1,30.05,North,0,8.0,10.0,78,0.00,,,0.00,Wunderground v.1.15,2013-10-01 14:54:00,
2013-10-01 11:00:00,72.7,64.3,30.05,NNW,342,8.0,8.0,75,0.00,,,0.00,Wunderground v.1.15,2013-10-01 15:00:00,
2013-10-01 11:06:00,73.0,64.6,30.05,NNW,347,8.0,13.0,75,0.00,,,0.00,Wunderground v.1.15,2013-10-01 15:06:00,
2013-10-01 11:12:00,73.2,64.8,30.05,NNW,337,7.0,8.0,75,0.00,,,0.00,Wunderground v.1.15,2013-10-01 15:12:00,
2013-10-01 11:18:00,73.3,64.9,30.05,NNW,346,8.0,8.0,75,0.00,,,0.00,Wunderground v.1.15,2013-10-01 15:18:00,
2013-10-01 11:24:00,73.5,64.3,30.05,NNW,347,8.0,10.0,73,0.00,,,0.00,Wunderground v.1.15,2013-10-01 15:24:00,
2013-10-01 11:30:00,73.9,64.3,30.05,NNW,344,9.0,9.0,72,0.00,,,0.00,Wunderground v.1.15,2013-10-01 15:30:00,
2013-10-01 11:36:00,73.9,63.9,30.04,North,349,9.0,10.0,71,0.00,,,0.00,Wunderground v.1.15,2013-10-01 15:36:00,
2013-10-01 11:42:00,73.9,63.9,30.04,NNW,339,9.0,10.0,71,0.00,,,0.00,Wunderground v.1.15,2013-10-01 15:42:00,
2013-10-01 11:48:00,73.9,63.9,30.04,NNW,339,9.0,11.0,71,0.00,,,0.00,Wunderground v.1.15,2013-10-01 15:48:00,
2013-10-01 11:54:00,74.2,64.6,30.04,NNW,347,8.0,9.0,72,0.00,,,0.00,Wunderground v.1.15,2013-10-01 15:54:00,
2013-10-01 12:00:00,74.7,64.7,30.03,North,0,7.0,7.0,71,0.00,,,0.00,Wunderground v.1.15,2013-10-01 16:00:00,
2013-10-01 12:06:00,75.3,63.2,30.03,North,356,6.0,12.0,66,0.00,,,0.00,Wunderground v.1.15,2013-10-01 16:06:00,
2013-10-01 12:12:00,76.0,61.6,30.03,North,356,5.0,6.0,61,0.00,,,0.00,Wunderground v.1.15,2013-10-01 16:12:00,
2013-10-01 12:18:00,76.5,61.6,30.03,North,357,5.0,8.0,60,0.00,,,0.00,Wunderground v.1.15,2013-10-01 16:18:00,
2013-10-01 12:24:00,76.5,61.6,30.03,North,350,5.0,8.0,60,0.00,,,0.00,Wunderground v.1.15,2013-10-01 16:24:00,
2013-10-01 12:30:00,76.3,63.7,30.03,NNE,30,5.0,5.0,65,0.00,,,0.00,Wunderground v.1.15,2013-10-01 16:30:00,
2013-10-01 12:36:00,76.5,64.3,30.03,North,349,5.0,8.0,66,0.00,,,0.00,Wunderground v.1.15,2013-10-01 16:36:00,
2013-10-01 12:38:00,76.5,63.4,30.03,North,356,5.0,8.0,64,0.00,,,0.00,Wunderground v.1.15,2013-10-01 16:38:00,
2013-10-01 12:44:00,76.3,62.8,30.03,North,11,5.0,5.0,63,0.00,,,0.00,Wunderground v.1.15,2013-10-01 16:44:00,
2013-10-01 12:50:00,77.6,61.7,30.03,North,359,4.0,4.0,58,0.00,,,0.00,Wunderground v.1.15,2013-10-01 16:50:00,
2013-10-01 12:56:00,77.0,63.4,30.03,NNE,21,3.0,7.0,63,0.00,,,0.00,Wunderground v.1.15,2013-10-01 16:56:00,
2013-10-01 13:02:00,77.2,61.8,30.02,North,350,4.0,13.0,59,0.00,,,0.00,Wunderground v.1.15,2013-10-01 17:02:00,
2013-10-01 13:08:00,77.6,62.1,30.02,North,10,4.0,13.0,59,0.00,,,0.00,Wunderground v.1.15,2013-10-01 17:08:00,
2013-10-01 13:14:00,78.6,62.6,30.02,North,356,4.0,6.0,58,0.00,,,0.00,Wunderground v.1.15,2013-10-01 17:14:00,
2013-10-01 13:20:00,78.8,62.8,30.02,ENE,75,3.0,4.0,58,0.00,,,0.00,Wunderground v.1.15,2013-10-01 17:20:00,
2013-10-01 13:26:00,78.5,63.5,30.02,North,0,3.0,5.0,60,0.00,,,0.00,Wunderground v.1.15,2013-10-01 17:26:00,
2013-10-01 13:32:00,77.6,62.1,30.01,NNW,347,4.0,6.0,59,0.00,,,0.00,Wunderground v.1.15,2013-10-01 17:32:00,
2013-10-01 13:38:00,78.6,62.1,30.01,NNW,347,4.0,9.0,57,0.00,,,0.00,Wunderground v.1.15,2013-10-01 17:38:00,
2013-10-01 13:44:00,77.4,63.8,30.01,North,353,5.0,8.0,63,0.00,,,0.00,Wunderground v.1.15,2013-10-01 17:44:00,
2013-10-01 13:50:00,78.1,62.1,30.00,ENE,68,5.0,6.0,58,0.00,,,0.00,Wunderground v.1.15,2013-10-01 17:50:00,
2013-10-01 13:56:00,78.8,62.8,30.00,ENE,76,4.0,6.0,58,0.00,,,0.00,Wunderground v.1.15,2013-10-01 17:56:00,
2013-10-01 14:02:00,79.0,63.0,30.00,ENE,62,4.0,6.0,58,0.00,,,0.00,Wunderground v.1.15,2013-10-01 18:02:00,
2013-10-01 14:08:00,79.2,63.1,30.00,East,79,3.0,11.0,58,0.00,,,0.00,Wunderground v.1.15,2013-10-01 18:08:00,
2013-10-01 14:14:00,79.6,63.5,30.00,North,0,3.0,6.0,58,0.00,,,0.00,Wunderground v.1.15,2013-10-01 18:14:00,
2013-10-01 14:20:00,77.7,64.1,29.99,North,357,5.0,5.0,63,0.00,,,0.00,Wunderground v.1.15,2013-10-01 18:20:00,
2013-10-01 14:26:00,78.1,63.1,29.99,North,357,4.0,5.0,60,0.00,,,0.00,Wunderground v.1.15,2013-10-01 18:26:00,
2013-10-01 14:32:00,78.5,64.4,29.99,North,0,4.0,7.0,62,0.00,,,0.00,Wunderground v.1.15,2013-10-01 18:32:00,
2013-10-01 14:38:00,78.3,64.7,29.99,North,359,6.0,7.0,63,0.00,,,0.00,Wunderground v.1.15,2013-10-01 18:38:00,
2013-10-01 14:44:00,78.3,62.3,29.99,NNW,343,4.0,6.0,58,0.00,,,0.00,Wunderground v.1.15,2013-10-01 18:44:00,
2013-10-01 14:50:00,78.3,63.3,29.98,NNW,343,3.0,3.0,60,0.00,,,0.00,Wunderground v.1.15,2013-10-01 18:50:00,
2013-10-01 14:56:00,78.8,63.3,29.98,NNW,347,4.0,5.0,59,0.00,,,0.00,Wunderground v.1.15,2013-10-01 18:56:00,
2013-10-01 15:02:00,78.3,63.3,29.98,North,353,5.0,10.0,60,0.00,,,0.00,Wunderground v.1.15,2013-10-01 19:02:00,
2013-10-01 15:08:00,78.3,63.7,29.98,NNW,342,5.0,10.0,61,0.00,,,0.00,Wunderground v.1.15,2013-10-01 19:08:00,
2013-10-01 15:14:00,78.5,62.0,29.98,North,0,3.0,4.0,57,0.00,,,0.00,Wunderground v.1.15,2013-10-01 19:14:00,
2013-10-01 15:20:00,79.2,63.6,29.98,North,0,2.0,3.0,59,0.00,,,0.00,Wunderground v.1.15,2013-10-01 19:20:00,
2013-10-01 15:26:00,79.8,62.2,29.98,ENE,69,2.0,3.0,55,0.00,,,0.00,Wunderground v.1.15,2013-10-01 19:26:00,
2013-10-01 15:32:00,81.2,63.5,29.97,NE,40,3.0,3.0,55,0.00,,,0.00,Wunderground v.1.15,2013-10-01 19:32:00,
2013-10-01 15:38:00,81.4,64.2,29.97,SSE,151,4.0,4.0,56,0.00,,,0.00,Wunderground v.1.15,2013-10-01 19:38:00,
2013-10-01 15:44:00,80.1,65.9,29.97,SSW,200,3.0,3.0,62,0.00,,,0.00,Wunderground v.1.15,2013-10-01 19:44:00,
2013-10-01 15:50:00,79.0,65.3,29.97,SSW,195,2.0,2.0,63,0.00,,,0.00,Wunderground v.1.15,2013-10-01 19:50:00,
2013-10-01 15:58:00,78.1,64.9,29.97,SSE,152,3.0,5.0,64,0.00,,,0.00,Wunderground v.1.15,2013-10-01 19:58:00,
2013-10-01 16:04:00,77.6,64.0,29.97,SW,229,4.0,10.0,63,0.00,,,0.00,Wunderground v.1.15,2013-10-01 20:04:00,
2013-10-01 16:10:00,76.8,63.7,29.97,SSW,202,4.0,4.0,64,0.00,,,0.00,Wunderground v.1.15,2013-10-01 20:10:00,
2013-10-01 16:16:00,77.2,64.1,29.97,SSE,155,4.0,4.0,64,0.00,,,0.00,Wunderground v.1.15,2013-10-01 20:16:00,
2013-10-01 16:22:00,76.8,62.8,29.97,South,175,4.0,7.0,62,0.00,,,0.00,Wunderground v.1.15,2013-10-01 20:22:00,
2013-10-01 16:28:00,76.5,62.5,29.97,South,185,4.0,7.0,62,0.00,,,0.00,Wunderground v.1.15,2013-10-01 20:28:00,
2013-10-01 16:34:00,76.5,63.0,29.97,SW,224,4.0,5.0,63,0.00,,,0.00,Wunderground v.1.15,2013-10-01 20:34:00,
2013-10-01 16:40:00,76.1,63.0,29.97,SSW,212,4.0,5.0,64,0.00,,,0.00,Wunderground v.1.15,2013-10-01 20:40:00,
2013-10-01 16:46:00,76.3,63.2,29.97,South,175,4.0,6.0,64,0.00,,,0.00,Wunderground v.1.15,2013-10-01 20:46:00,
2013-10-01 16:52:00,76.1,63.0,29.97,WSW,243,4.0,7.0,64,0.00,,,0.00,Wunderground v.1.15,2013-10-01 20:52:00,
2013-10-01 16:58:00,76.3,63.2,29.97,SSE,155,4.0,7.0,64,0.00,,,0.00,Wunderground v.1.15,2013-10-01 20:58:00,
2013-10-01 17:04:00,76.7,63.2,29.97,South,182,3.0,11.0,63,0.00,,,0.00,Wunderground v.1.15,2013-10-01 21:04:00,
2013-10-01 17:10:00,76.1,63.0,29.97,SW,220,3.0,5.0,64,0.00,,,0.00,Wunderground v.1.15,2013-10-01 21:10:00,
2013-10-01 17:16:00,76.0,63.4,29.97,South,176,4.0,6.0,65,0.00,,,0.00,Wunderground v.1.15,2013-10-01 21:16:00,
2013-10-01 17:22:00,75.8,63.2,29.97,South,186,3.0,5.0,65,0.00,,,0.00,Wunderground v.1.15,2013-10-01 21:22:00,
2013-10-01 17:28:00,75.6,63.0,29.97,WSW,240,3.0,5.0,65,0.00,,,0.00,Wunderground v.1.15,2013-10-01 21:28:00,
2013-10-01 17:34:00,75.8,63.6,29.97,South,178,3.0,3.0,66,0.00,,,0.00,Wunderground v.1.15,2013-10-01 21:34:00,
2013-10-01 17:40:00,75.6,64.3,29.97,SSW,212,3.0,5.0,68,0.00,,,0.00,Wunderground v.1.15,2013-10-01 21:40:00,
2013-10-01 17:46:00,76.0,63.4,29.97,SW,227,3.0,5.0,65,0.00,,,0.00,Wunderground v.1.15,2013-10-01 21:46:00,
2013-10-01 17:52:00,75.8,64.1,29.97,SSE,160,2.0,3.0,67,0.00,,,0.00,Wunderground v.1.15,2013-10-01 21:52:00,
2013-10-01 17:58:00,75.6,63.9,29.97,SW,219,2.0,3.0,67,0.00,,,0.00,Wunderground v.1.15,2013-10-01 21:58:00,
2013-10-01 18:04:00,75.1,63.4,29.97,SSE,147,3.0,11.0,67,0.00,,,0.00,Wunderground v.1.15,2013-10-01 22:04:00,
2013-10-01 18:10:00,75.1,63.8,29.97,SE,131,2.0,2.0,68,0.00,,,0.00,Wunderground v.1.15,2013-10-01 22:10:00,
2013-10-01 18:16:00,74.9,63.6,29.97,South,175,2.0,2.0,68,0.00,,,0.00,Wunderground v.1.15,2013-10-01 22:16:00,
2013-10-01 18:22:00,74.9,63.6,29.97,SE,137,2.0,3.0,68,0.00,,,0.00,Wunderground v.1.15,2013-10-01 22:22:00,
2013-10-01 18:28:00,74.9,64.0,29.97,SSW,213,2.0,3.0,69,0.00,,,0.00,Wunderground v.1.15,2013-10-01 22:28:00,
2013-10-01 18:34:00,74.6,64.2,29.97,SE,131,2.0,3.0,70,0.00,,,0.00,Wunderground v.1.15,2013-10-01 22:34:00,
2013-10-01 18:40:00,74.4,63.6,29.97,SSW,196,2.0,2.0,69,0.00,,,0.00,Wunderground v.1.15,2013-10-01 22:40:00,
2013-10-01 18:46:00,74.0,63.6,29.98,SSW,192,2.0,2.0,70,0.00,,,0.00,Wunderground v.1.15,2013-10-01 22:46:00,
2013-10-01 18:52:00,73.9,64.3,29.98,South,169,1.0,2.0,72,0.00,,,0.00,Wunderground v.1.15,2013-10-01 22:52:00,
2013-10-01 18:58:00,73.3,63.7,29.98,WSW,258,1.0,2.0,72,0.00,,,0.00,Wunderground v.1.15,2013-10-01 22:58:00,
2013-10-01 19:04:00,73.0,63.4,29.98,SSW,192,1.0,8.0,72,0.00,,,0.00,Wunderground v.1.15,2013-10-01 23:04:00,
2013-10-01 19:10:00,72.7,63.9,29.98,SSW,202,1.0,2.0,74,0.00,,,0.00,Wunderground v.1.15,2013-10-01 23:10:00,
2013-10-01 19:16:00,72.3,63.9,29.98,West,278,1.0,2.0,75,0.00,,,0.00,Wunderground v.1.15,2013-10-01 23:16:00,
2013-10-01 19:22:00,72.1,64.1,29.98,WNW,287,1.0,1.0,76,0.00,,,0.00,Wunderground v.1.15,2013-10-01 23:22:00,
2013-10-01 19:28:00,72.0,64.4,29.98,NW,312,1.0,2.0,77,0.00,,,0.00,Wunderground v.1.15,2013-10-01 23:28:00,
2013-10-01 19:34:00,71.8,64.2,29.99,NW,320,1.0,2.0,77,0.00,,,0.00,Wunderground v.1.15,2013-10-01 23:34:00,
2013-10-01 19:40:00,71.6,64.0,29.99,NNW,332,1.0,1.0,77,0.00,,,0.00,Wunderground v.1.15,2013-10-01 23:40:00,
2013-10-01 19:46:00,71.6,64.0,29.99,SW,217,1.0,2.0,77,0.00,,,0.00,Wunderground v.1.15,2013-10-01 23:46:00,
2013-10-01 19:52:00,71.5,64.6,29.99,South,179,1.0,1.0,79,0.00,,,0.00,Wunderground v.1.15,2013-10-01 23:52:00,
2013-10-01 19:58:00,71.5,65.0,29.99,SW,234,0.0,1.0,80,0.00,,,0.00,Wunderground v.1.15,2013-10-01 23:58:00,
2013-10-01 20:04:00,71.3,64.8,29.99,NNW,340,0.0,6.0,80,0.00,,,0.00,Wunderground v.1.15,2013-10-02 00:04:00,
2013-10-01 20:10:00,70.9,64.4,29.99,South,186,0.0,0.0,80,0.00,,,0.00,Wunderground v.1.15,2013-10-02 00:10:00,
2013-10-01 20:16:00,70.9,64.8,29.99,South,191,0.0,0.0,81,0.00,,,0.00,Wunderground v.1.15,2013-10-02 00:16:00,
2013-10-01 20:20:00,70.8,65.0,29.99,SSW,198,0.0,0.0,82,0.00,,,0.00,Wunderground v.1.15,2013-10-02 00:20:00,
2013-10-01 20:26:00,70.8,65.0,29.99,SSE,168,0.0,0.0,82,0.00,,,0.00,Wunderground v.1.15,2013-10-02 00:26:00,
2013-10-01 20:32:00,70.8,65.0,30.00,WSW,246,0.0,0.0,82,0.00,,,0.00,Wunderground v.1.15,2013-10-02 00:32:00,
2013-10-01 20:38:00,70.8,65.4,30.00,SSE,158,0.0,0.0,83,0.00,,,0.00,Wunderground v.1.15,2013-10-02 00:38:00,
2013-10-01 20:44:00,70.4,65.3,30.00,SSE,151,0.0,1.0,84,0.00,,,0.00,Wunderground v.1.15,2013-10-02 00:44:00,
2013-10-01 20:50:00,70.3,65.9,30.00,SSE,152,0.0,0.0,86,0.00,,,0.00,Wunderground v.1.15,2013-10-02 00:50:00,
2013-10-01 20:56:00,70.3,65.6,30.00,SW,215,0.0,1.0,85,0.00,,,0.00,Wunderground v.1.15,2013-10-02 00:56:00,
2013-10-01 21:02:00,70.3,65.6,30.00,SW,224,0.0,2.0,85,0.00,,,0.00,Wunderground v.1.15,2013-10-02 01:02:00,
2013-10-01 21:08:00,70.3,65.2,30.00,NW,323,0.0,2.0,84,0.00,,,0.00,Wunderground v.1.15,2013-10-02 01:08:00,
2013-10-01 21:14:00,70.3,65.6,30.00,WSW,247,0.0,0.0,85,0.00,,,0.00,Wunderground v.1.15,2013-10-02 01:14:00,
2013-10-01 21:20:00,70.3,65.2,30.00,South,174,0.0,0.0,84,0.00,,,0.00,Wunderground v.1.15,2013-10-02 01:20:00,
2013-10-01 21:26:00,70.3,65.2,30.00,South,171,0.0,1.0,84,0.00,,,0.00,Wunderground v.1.15,2013-10-02 01:26:00,
2013-10-01 21:32:00,70.4,65.0,30.00,SSE,160,0.0,0.0,83,0.00,,,0.00,Wunderground v.1.15,2013-10-02 01:32:00,
2013-10-01 21:38:00,70.6,64.8,30.00,NNW,337,0.0,2.0,82,0.00,,,0.00,Wunderground v.1.15,2013-10-02 01:38:00,
2013-10-01 21:44:00,70.6,64.8,30.00,West,277,0.0,0.0,82,0.00,,,0.00,Wunderground v.1.15,2013-10-02 01:44:00,
2013-10-01 21:50:00,70.6,64.5,30.01,West,264,0.0,0.0,81,0.00,,,0.00,Wunderground v.1.15,2013-10-02 01:50:00,
2013-10-01 21:56:00,70.4,64.6,30.01,WSW,246,0.0,0.0,82,0.00,,,0.00,Wunderground v.1.15,2013-10-02 01:56:00,
2013-10-01 22:02:00,70.4,64.6,30.02,WSW,251,0.0,2.0,82,0.00,,,0.00,Wunderground v.1.15,2013-10-02 02:02:00,
2013-10-01 22:08:00,70.4,64.6,30.02,West,267,0.0,2.0,82,0.00,,,0.00,Wunderground v.1.15,2013-10-02 02:08:00,
2013-10-01 22:14:00,70.6,64.5,30.02,SW,229,0.0,1.0,81,0.00,,,0.00,Wunderground v.1.15,2013-10-02 02:14:00,
2013-10-01 22:20:00,70.8,64.7,30.02,SW,217,0.0,0.0,81,0.00,,,0.00,Wunderground v.1.15,2013-10-02 02:20:00,
2013-10-01 22:26:00,70.8,64.7,30.02,SW,215,0.0,0.0,81,0.00,,,0.00,Wunderground v.1.15,2013-10-02 02:26:00,
2013-10-01 22:32:00,70.9,64.4,30.02,WNW,292,0.0,1.0,80,0.00,,,0.00,Wunderground v.1.15,2013-10-02 02:32:00,
2013-10-01 22:38:00,71.3,64.8,30.02,WSW,256,0.0,1.0,80,0.00,,,0.00,Wunderground v.1.15,2013-10-02 02:38:00,
2013-10-01 22:44:00,71.3,65.2,30.02,West,263,0.0,0.0,81,0.00,,,0.00,Wunderground v.1.15,2013-10-02 02:44:00,
2013-10-01 22:50:00,71.1,65.0,30.03,WSW,251,0.0,0.0,81,0.00,,,0.00,Wunderground v.1.15,2013-10-02 02:50:00,
2013-10-01 22:56:00,71.1,64.6,30.03,WSW,258,0.0,0.0,80,0.00,,,0.00,Wunderground v.1.15,2013-10-02 02:56:00,
2013-10-01 23:02:00,70.9,64.8,30.03,WSW,244,0.0,2.0,81,0.00,,,0.00,Wunderground v.1.15,2013-10-02 03:02:00,
2013-10-01 23:08:00,70.9,64.4,30.03,SSW,206,0.0,2.0,80,0.00,,,0.00,Wunderground v.1.15,2013-10-02 03:08:00,
2013-10-01 23:14:00,71.3,64.4,30.03,SSW,200,0.0,0.0,79,0.00,,,0.00,Wunderground v.1.15,2013-10-02 03:14:00,
2013-10-01 23:20:00,71.3,64.1,30.03,SSW,200,0.0,0.0,78,0.00,,,0.00,Wunderground v.1.15,2013-10-02 03:20:00,
2013-10-01 23:26:00,71.5,64.3,30.03,SSW,200,0.0,0.0,78,0.00,,,0.00,Wunderground v.1.15,2013-10-02 03:26:00,
2013-10-01 23:32:00,71.3,64.4,30.03,SSW,200,0.0,0.0,79,0.00,,,0.00,Wunderground v.1.15,2013-10-02 03:32:00,
2013-10-01 23:38:00,70.3,65.2,30.03,SSW,200,0.0,0.0,84,0.00,,,0.00,Wunderground v.1.15,2013-10-02 03:38:00,
2013-10-01 23:44:00,69.4,64.7,30.03,SSW,200,0.0,0.0,85,0.00,,,0.00,Wunderground v.1.15,2013-10-02 03:44:00,
2013-10-01 23:50:00,68.8,64.8,30.03,SSW,200,0.0,0.0,87,0.00,,,0.00,Wunderground v.1.15,2013-10-02 03:50:00,
2013-10-01 23:56:00,68.1,64.4,30.03,WNW,294,0.0,0.0,88,0.00,,,0.00,Wunderground v.1.15,2013-10-02 03:56:00,